Back to catalog

STARLINK-11226

AliveCommunicationsVLEO
NORAD 60907·PAYLOAD·🇺🇸 United States

Launched Aug 31, 2024 from Cape Canaveral Space Force Station

Loading…

Next Passes (next 24 hours)

TLE

FreshSource: CelesTrak SupGP

Epoch: Sep 14, 2026, 22:36 UTC

1 60907C 24154E   26257.94215278  .00033746  00000+0  27799-3 0  2574
2 60907  53.1571 278.5115 0001267  89.1535 355.7229 15.69691329    17

Track STARLINK-11226 in real time with AllMySat

Download on the App Store